FW9324 Weather Reports


time (UTC)temp
C
wind
direction
speed
KPH
gust
KPH
rain 1hr
cm
rain 24hr
cm
rain mn
cm
humidity
%
barometer
mb
20260504044611 3 244 4.8 8.0 0.00 0.00 0.00 77 1013.9
20260504043055 4 243 3.2 8.0 0.00 0.00 0.00 75 1013.8
20260504041557 5 249 3.2 4.8 0.00 0.00 0.00 73 1013.7
20260504040110 5 229 1.6 4.8 0.00 0.00 0.00 74 1013.7
20260504034607 5 207 1.6 4.8 0.00 0.00 0.00 74 1013.7
20260504033057 5 0 0.0 1.6 0.00 0.00 0.00 74 1013.8
20260504031553 5 0 0.0 0.0 0.00 0.00 0.00 73 1013.8
20260504030056 5 0 0.0 1.6 0.00 0.00 0.00 74 1013.8
20260504024601 5 0 0.0 0.0 0.00 0.00 0.00 77 1014.0
20260504023054 5 0 0.0 0.0 0.00 0.00 0.00 74 1014.1
20260504021556 5 0 0.0 0.0 0.00 0.00 0.00 74 1014.2
20260504020053 6 0 0.0 1.6 0.00 0.00 0.00 72 1014.1
20260504014559 6 0 0.0 0.0 0.00 0.00 0.00 69 1014.1
20260504013119 7 0 0.0 1.6 0.00 0.00 0.00 68 1013.9
20260504011602 7 0 0.0 1.6 0.00 0.00 0.00 66 1013.9
20260504010106 7 0 0.0 3.2 0.00 0.00 0.00 67 1013.7
20260504004607 8 0 0.0 8.0 0.00 0.00 0.00 63 1013.7
20260504003058 9 207 1.6 8.0 0.00 0.00 0.00 58 1013.7
20260504001558 10 242 8.0 12.9 0.00 0.00 0.00 55 1013.7
20260504000125 10 217 6.4 14.5 0.00 0.00 0.00 53 1013.7
20260503234557 11 250 11.3 20.9 0.00 0.00 0.00 52 1013.7
20260503233057 12 240 16.1 27.4 0.00 0.00 0.00 48 1013.8
20260503231556 12 239 16.1 30.6 0.00 0.00 0.00 47 1013.8
20260503224557 12 230 16.1 25.7 0.00 0.00 0.00 47 1013.9
20260503223058 12 270 16.1 32.2 0.00 0.00 0.00 49 1013.9
20260503221556 13 252 19.3 25.7 0.00 0.00 0.00 46 1014.0
20260503220122 13 295 17.7 30.6 0.00 0.00 0.00 47 1013.9
20260503214559 13 229 14.5 25.7 0.00 0.00 0.00 48 1013.8
20260503213103 12 235 17.7 35.4 0.00 0.00 0.00 46 1013.9
20260503211558 13 238 20.9 33.8 0.00 0.00 0.00 45 1013.9
20260503210059 13 243 16.1 32.2 0.00 0.00 0.00 47 1014.1
20260503204603 13 235 16.1 27.4 0.00 0.00 0.00 48 1014.1
20260503203100 13 237 14.5 29.0 0.00 0.00 0.00 47 1014.2
20260503201557 13 260 14.5 29.0 0.00 0.00 0.00 48 1014.5
20260503194559 12 290 11.3 20.9 0.00 0.00 0.00 49 1014.7
20260503193054 13 255 19.3 29.0 0.00 0.00 0.00 52 1015.0
20260503191553 13 284 12.9 30.6 0.00 0.00 0.00 46 1015.1
20260503190059 13 281 17.7 30.6 0.00 0.00 0.00 50 1015.3
20260503184605 12 267 11.3 27.4 0.00 0.00 0.00 49 1015.5
20260503183056 13 276 17.7 27.4 0.00 0.00 0.00 49 1015.8
20260503181601 13 261 20.9 30.6 0.00 0.00 0.00 49 1016.0
20260503180116 12 286 19.3 30.6 0.00 0.00 0.00 47 1016.0
20260503174559 12 321 14.5 30.6 0.00 0.00 0.00 50 1016.2
20260503173106 12 241 17.7 33.8 0.00 0.00 0.00 49 1016.4
20260503171600 12 228 16.1 24.1 0.00 0.00 0.00 50 1016.5
20260503160111 11 272 12.9 25.7 0.00 0.00 0.00 60 1017.1
20260503110104 0 230 3.2 8.0 0.00 0.00 0.00 92 1017.0
20260503081556 0 224 0.0 0.0 0.00 0.00 0.00 89 1016.0
20260503071557 0 250 0.0 3.2 0.00 0.00 0.00 87 1015.9
20260503060114 0 0 0.0 1.6 0.00 0.00 0.00 85 1015.9
20260503054620 0 0 0.0 1.6 0.00 0.00 0.00 85 1015.9
20260503053056 0 0 0.0 1.6 0.00 0.00 0.00 84 1015.9
20260503051604 1 0 0.0 0.0 0.00 0.00 0.00 83 1016.0
20260503050057 1 0 0.0 1.6 0.00 0.00 0.00 82 1016.2